Terminal Aerodrome Forecast
Issued by NWS Milwaukee/Sullivan, WI

Home | Current Version | Previous Version | Text Only | Print | Product List | Glossary On
Versions: 1 2 3 4 5 6 7 8 9 10 11 12 13 14 15 16 17 18 19 20 21 22 23 24 25 26 27 28 29 30 31 32 33 34 35 36 37 38 39 40 41 42 43 44 45 46 47 48 49 50
000
FTUS43 KMKX 262328
TAFMSN
TAF
KMSN 262328Z 2700/2724 31004KT 5SM BR OVC015
      TEMPO 2703/2705 SCT015 OVC050
     FM270500 32004KT P6SM BKN025 OVC040
      TEMPO 2705/2709 3SM -SN BKN018
     FM270900 32007KT P6SM OVC020
     FM271200 31008KT P6SM BKN015
     FM271700 32008KT P6SM BKN035
     FM272000 32006KT P6SM SCT020=

USA.gov is the U.S. government's official web portal to all federal, state and local government web resources and services.